EW9366 Weather Reports


Display with metric or nautical units.
time (UTC)temp
F
wind
direction
speed
MPH
gust
MPH
rain 1hr
in
rain 24hr
in
rain mn
in
humidity
%
barometer
mb
20260901110130 74 147 0.0 0.0 0.00 0.00 0.00 78 1017.8
20260901105616 74 147 0.0 0.0 0.00 0.00 0.00 78 1017.8
20260901105120 74 147 0.0 0.0 0.00 0.00 0.00 78 1017.8
20260901104551 74 147 0.0 0.0 0.00 0.00 0.00 78 1017.7
20260901104026 74 147 0.0 0.0 0.00 0.00 0.00 78 1017.7
20260901103457 74 147 0.0 0.0 0.00 0.00 0.00 78 1017.7
20260901102956 74 147 0.0 0.0 0.00 0.00 0.00 77 1017.7
20260901102426 74 147 0.0 0.0 0.00 0.00 0.00 77 1017.5
20260901101922 74 147 0.0 0.0 0.00 0.00 0.00 77 1017.6
20260901101358 74 147 0.0 0.0 0.00 0.00 0.00 76 1017.6
20260901100856 75 147 0.0 0.0 0.00 0.00 0.00 76 1017.5
20260901100324 75 147 0.0 0.0 0.00 0.00 0.00 76 1017.5
20260901095824 75 147 0.0 0.0 0.00 0.00 0.00 75 1017.4
20260901095740 75 147 0.0 0.0 0.00 0.00 0.00 75 1017.4
20260901094751 75 147 0.0 0.0 0.00 0.00 0.00 76 1017.4
20260901094248 75 147 0.0 0.0 0.00 0.00 0.00 75 1017.4
20260901093746 75 147 0.0 0.0 0.00 0.00 0.00 75 1017.4
20260901093222 75 147 0.0 0.0 0.00 0.00 0.00 75 1017.4
20260901092721 75 147 0.0 0.0 0.00 0.00 0.00 75 1017.4
20260901092222 76 147 0.0 0.0 0.00 0.00 0.00 74 1017.3
20260901091718 76 147 0.0 0.0 0.00 0.00 0.00 74 1017.3
20260901091639 76 147 0.0 0.0 0.00 0.00 0.00 74 1017.3
20260901090627 76 147 0.0 0.0 0.00 0.00 0.00 73 1017.1
20260901090124 76 147 0.0 0.0 0.00 0.00 0.00 73 1017.1
20260901085602 76 147 0.0 0.0 0.00 0.00 0.00 73 1017.1
20260901085036 76 147 0.0 0.0 0.00 0.00 0.00 72 1017.1
20260901084526 77 147 0.0 0.0 0.00 0.00 0.00 72 1017.1
20260901084508 77 147 0.0 0.0 0.00 0.00 0.00 72 1017.1
20260901083521 77 147 0.0 0.0 0.00 0.00 0.00 71 1017.1
20260901083504 77 147 0.0 0.0 0.00 0.00 0.00 71 1017.1
20260901082931 77 147 0.0 0.0 0.00 0.00 0.00 71 1017.1
20260901081927 77 147 0.0 0.0 0.00 0.00 0.00 71 1017.0
20260901081402 77 147 0.0 0.0 0.00 0.00 0.00 71 1017.0
20260901080903 77 147 0.0 0.0 0.00 0.00 0.00 71 1017.0
20260901080337 77 147 0.0 0.0 0.00 0.00 0.00 71 1017.0
20260901075811 77 202 0.0 0.0 0.00 0.00 0.00 71 1017.0
20260901075246 77 202 0.0 0.0 0.00 0.00 0.00 71 1017.0
20260901074745 77 249 0.0 0.0 0.00 0.00 0.00 71 1017.0
20260901074241 77 249 0.0 0.0 0.00 0.00 0.00 71 1017.0
20260901074227 76 248 0.0 0.0 0.00 0.00 0.00 71 1017.1
20260901073237 76 249 0.0 0.0 0.00 0.00 0.00 71 1017.1
20260901073217 76 249 0.0 0.0 0.00 0.00 0.00 71 1017.3
20260901072713 76 249 0.0 0.0 0.00 0.00 0.00 70 1017.3
20260901071657 76 249 0.0 0.0 0.00 0.00 0.00 70 1017.0
20260901071135 76 248 0.0 0.0 0.00 0.00 0.00 70 1017.1
20260901070613 76 249 0.0 0.0 0.00 0.00 0.00 70 1017.1
20260901070114 76 249 0.0 0.0 0.00 0.00 0.00 70 1017.1
20260901065612 76 249 0.0 0.0 0.00 0.00 0.00 70 1017.0
20260901065051 76 249 0.0 0.0 0.00 0.00 0.00 70 1017.0
20260901064548 76 249 0.0 0.0 0.00 0.00 0.00 69 1017.1
20260901064049 76 248 0.0 0.0 0.00 0.00 0.00 69 1017.1
20260901063522 77 249 0.0 0.0 0.00 0.00 0.00 68 1017.0
20260901062957 77 248 0.0 0.0 0.00 0.00 0.00 68 1017.0
20260901062459 77 249 0.0 0.0 0.00 0.00 0.00 67 1017.0
20260901061958 77 248 0.0 0.0 0.00 0.00 0.00 67 1017.0
20260901061501 77 249 0.0 0.0 0.00 0.00 0.00 67 1017.1
20260901060935 77 249 0.0 0.0 0.00 0.00 0.00 67 1017.1
20260901060429 77 249 0.0 0.0 0.00 0.00 0.00 67 1017.1
20260901055928 78 249 0.0 0.0 0.00 0.00 0.00 66 1017.1
20260901055404 78 249 0.0 0.0 0.00 0.00 0.00 66 1017.1
20260901054905 78 249 0.0 0.0 0.00 0.00 0.00 65 1017.1
20260901054340 78 249 0.0 0.0 0.00 0.00 0.00 65 1017.0
20260901054255 78 253 0.0 1.0 0.00 0.00 0.00 64 1017.0
20260901053314 79 253 0.0 1.0 0.00 0.00 0.00 64 1016.9
20260901052817 79 253 0.0 1.0 0.00 0.00 0.00 63 1016.9
20260901052255 79 253 0.0 1.0 0.00 0.00 0.00 63 1016.9
20260901051731 79 281 0.0 1.0 0.00 0.00 0.00 62 1016.8
20260901051206 80 281 0.0 1.0 0.00 0.00 0.00 62 1016.7
20260901050706 80 280 0.0 1.0 0.00 0.00 0.00 61 1016.7
20260901050639 80 280 0.0 1.0 0.00 0.00 0.00 61 1016.7
20260901045654 80 39 0.0 1.0 0.00 0.00 0.00 61 1016.6
20260901045638 80 40 0.0 1.0 0.00 0.00 0.00 61 1016.7
20260901044644 80 347 0.0 1.0 0.00 0.00 0.00 61 1016.6
20260901044143 80 18 0.0 0.0 0.00 0.00 0.00 60 1016.8
20260901044053 80 18 0.0 4.0 0.00 0.00 0.00 60 1016.8
20260901043110 80 18 0.0 4.0 0.00 0.00 0.00 59 1016.7
20260901043030 80 110 0.0 0.0 0.00 0.00 0.00 59 1016.6
20260901042018 80 110 0.0 0.0 0.00 0.00 0.00 58 1016.6
20260901042001 81 110 0.0 1.0 0.00 0.00 0.00 58 1016.6
20260901040949 81 110 0.0 1.0 0.00 0.00 0.00 58 1016.7
20260901040423 81 110 0.0 1.0 0.00 0.00 0.00 58 1016.6
20260901040340 82 110 0.0 1.0 0.00 0.00 0.00 57 1016.6
20260901035354 82 110 0.0 1.0 0.00 0.00 0.00 56 1016.5
20260901034855 82 107 0.0 0.0 0.00 0.00 0.00 56 1016.7
20260901034354 82 107 0.0 0.0 0.00 0.00 0.00 55 1016.6
20260901033852 83 107 0.0 4.0 0.00 0.00 0.00 55 1016.6
20260901033354 83 107 0.0 4.0 0.00 0.00 0.00 55 1016.5
20260901032833 83 130 0.0 4.0 0.00 0.00 0.00 55 1016.6
20260901032306 83 76 0.0 1.0 0.00 0.00 0.00 55 1016.6
20260901031801 83 158 0.0 1.0 0.00 0.00 0.00 55 1016.5
20260901031237 83 261 0.0 1.0 0.00 0.00 0.00 55 1016.5
20260901030710 83 261 0.0 1.0 0.00 0.00 0.00 55 1016.5
20260901030145 83 261 0.0 1.0 0.00 0.00 0.00 55 1016.5
20260901025632 83 262 0.0 2.0 0.00 0.00 0.00 55 1016.4
20260901025130 84 262 0.0 4.0 0.00 0.00 0.00 55 1016.3
20260901024603 84 137 0.0 4.0 0.00 0.00 0.00 55 1016.3
20260901024058 84 60 0.0 1.0 0.00 0.00 0.00 54 1016.2
20260901023557 84 60 0.0 1.0 0.00 0.00 0.00 55 1016.2
20260901023515 84 141 0.0 1.0 0.00 0.00 0.00 55 1016.0
20260901022503 84 141 0.0 1.0 0.00 0.00 0.00 54 1016.0
20260901022001 84 143 0.0 1.0 0.00 0.00 0.00 54 1015.9
20260901021448 85 143 0.0 1.0 0.00 0.00 0.00 53 1015.9
20260901020949 85 143 0.0 0.0 0.00 0.00 0.00 52 1015.7
20260901020440 86 143 0.0 0.0 0.00 0.00 0.00 52 1015.7
20260901015913 86 143 0.0 1.0 0.00 0.00 0.00 51 1015.7
20260901015411 86 143 0.0 1.0 0.00 0.00 0.00 50 1015.7
20260901014907 86 152 0.0 1.0 0.00 0.00 0.00 50 1015.6
20260901014822 87 136 0.0 2.0 0.00 0.00 0.00 51 1015.6
20260901013835 87 187 0.0 2.0 0.00 0.00 0.00 50 1015.5
20260901013311 86 138 0.0 1.0 0.00 0.00 0.00 51 1015.5
20260901012751 86 152 0.0 1.0 0.00 0.00 0.00 50 1015.4
20260901012250 87 160 0.0 1.0 0.00 0.00 0.00 50 1015.5
20260901011753 87 189 0.0 0.0 0.00 0.00 0.00 50 1015.4
20260901011232 87 189 0.0 0.0 0.00 0.00 0.00 49 1015.4
20260901010730 88 189 0.0 0.0 0.00 0.00 0.00 48 1015.4
20260901010707 88 189 0.0 0.0 0.00 0.00 0.00 47 1015.3
20260901005725 89 189 0.0 0.0 0.00 0.00 0.00 46 1015.2
20260901005157 90 189 0.0 0.0 0.00 0.00 0.00 45 1015.2
20260901004633 91 189 0.0 0.0 0.00 0.00 0.00 43 1015.1
20260901004108 93 189 0.0 0.0 0.00 0.00 0.00 42 1015.1
20260901004049 94 189 0.0 0.0 0.00 0.00 0.00 40 1015.1
20260901003058 95 189 0.0 0.0 0.00 0.00 0.00 40 1015.0
20260901002528 96 189 0.0 0.0 0.00 0.00 0.00 38 1015.0
20260901002027 97 189 0.0 0.0 0.00 0.00 0.00 37 1015.0
20260901001513 98 189 0.0 0.0 0.00 0.00 0.00 37 1014.9
20260901001507 98 190 0.0 1.0 0.00 0.00 0.00 36 1015.0
20260901000511 98 190 0.0 1.0 0.00 0.00 0.00 36 1014.9
20260901000009 99 190 0.0 1.0 0.00 0.00 0.00 35 1014.9
20260831235926 99 195 0.0 2.0 0.00 0.00 0.00 35 1014.9
20260831234938 99 158 0.0 2.0 0.00 0.00 0.00 34 1015.0
20260831234410 100 140 0.0 4.0 0.00 0.00 0.00 35 1015.0
20260831234356 100 190 0.0 4.0 0.00 0.00 0.00 34 1015.0
20260831233338 100 191 0.0 2.0 0.00 0.00 0.00 34 1015.0
20260831232836 100 156 0.0 2.0 0.00 0.00 0.00 33 1015.0
20260831232308 100 132 0.0 2.0 0.00 0.00 0.00 33 1014.9
20260831231808 100 131 1.0 2.0 0.00 0.00 0.00 35 1015.0
20260831231735 100 146 1.0 4.0 0.00 0.00 0.00 34 1015.0
20260831230736 100 133 0.0 6.0 0.00 0.00 0.00 34 1015.0
20260831230234 99 28 1.0 6.0 0.00 0.00 0.00 36 1015.1
20260831225711 99 127 2.0 6.0 0.00 0.00 0.00 36 1015.1
20260831225212 99 101 1.0 6.0 0.00 0.00 0.00 35 1015.0
20260831224715 99 53 1.0 4.0 0.00 0.00 0.00 35 1015.0
20260831224639 99 79 0.0 2.0 0.00 0.00 0.00 36 1015.1
20260831223620 98 131 1.0 3.0 0.00 0.00 0.00 37 1015.1
20260831223110 99 77 1.0 4.0 0.00 0.00 0.00 36 1015.1
20260831222606 99 120 1.0 4.0 0.00 0.00 0.00 36 1015.2
20260831222105 99 64 1.0 4.0 0.00 0.00 0.00 35 1015.3
20260831221604 99 240 1.0 3.0 0.00 0.00 0.00 35 1015.1
20260831221101 99 84 1.0 4.0 0.00 0.00 0.00 36 1015.2
20260831220534 99 80 1.0 4.0 0.00 0.00 0.00 35 1015.2
20260831220035 99 76 1.0 3.0 0.00 0.00 0.00 34 1015.2
20260831215948 99 207 1.0 3.0 0.00 0.00 0.00 34 1015.3
20260831215424 99 131 1.0 3.0 0.00 0.00 0.00 35 1015.4
20260831214413 99 217 1.0 4.0 0.00 0.00 0.00 36 1015.4
20260831213910 99 197 1.0 4.0 0.00 0.00 0.00 35 1015.4
20260831213409 100 138 1.0 3.0 0.00 0.00 0.00 35 1015.4
20260831212841 99 199 1.0 3.0 0.00 0.00 0.00 35 1015.3
20260831212336 99 127 2.0 6.0 0.00 0.00 0.00 36 1015.3
20260831212332 100 262 2.0 6.0 0.00 0.00 0.00 34 1015.4
20260831211307 102 283 1.0 5.0 0.00 0.00 0.00 34 1015.4
20260831210738 102 195 0.0 2.0 0.00 0.00 0.00 35 1015.4
20260831210234 101 202 1.0 5.0 0.00 0.00 0.00 35 1015.5
20260831205728 102 51 2.0 5.0 0.00 0.00 0.00 33 1015.5
20260831205226 102 253 1.0 4.0 0.00 0.00 0.00 34 1015.5
20260831204702 103 11 1.0 4.0 0.00 0.00 0.00 35 1015.6
20260831204157 103 141 1.0 5.0 0.00 0.00 0.00 33 1015.7
20260831203653 103 16 2.0 5.0 0.00 0.00 0.00 34 1015.8
20260831203616 103 140 1.0 5.0 0.00 0.00 0.00 33 1015.8
20260831202559 103 189 1.0 3.0 0.00 0.00 0.00 34 1015.9
20260831202534 102 205 1.0 5.0 0.00 0.00 0.00 34 1015.9
20260831201552 103 91 1.0 5.0 0.00 0.00 0.00 33 1015.9
20260831201049 104 150 1.0 5.0 0.00 0.00 0.00 34 1015.9
20260831200545 103 170 1.0 5.0 0.00 0.00 0.00 35 1016.0
20260831200018 103 235 1.0 4.0 0.00 0.00 0.00 36 1016.0
20260831200002 102 203 2.0 6.0 0.00 0.00 0.00 35 1016.2
20260831195000 101 278 2.0 9.0 0.00 0.00 0.00 36 1016.2
20260831194457 101 226 1.0 9.0 0.00 0.00 0.00 36 1016.2
20260831194001 100 157 1.0 4.0 0.00 0.00 0.00 38 1016.4
20260831193433 98 43 1.0 5.0 0.00 0.00 0.00 39 1016.4
20260831192928 98 113 2.0 5.0 0.00 0.00 0.00 40 1016.4
20260831192425 98 92 1.0 3.0 0.00 0.00 0.00 39 1016.5
20260831191856 99 125 0.0 2.0 0.00 0.00 0.00 37 1016.7
20260831191355 100 185 1.0 6.0 0.00 0.00 0.00 37 1016.7
20260831191305 102 295 2.0 6.0 0.00 0.00 0.00 35 1016.8
20260831190324 103 224 1.0 5.0 0.00 0.00 0.00 35 1016.9
20260831185801 102 204 1.0 4.0 0.00 0.00 0.00 36 1016.9
20260831185229 102 188 1.0 5.0 0.00 0.00 0.00 36 1016.9
20260831184729 102 32 1.0 6.0 0.00 0.00 0.00 36 1017.1
20260831184225 103 137 1.0 6.0 0.00 0.00 0.00 35 1017.1
20260831183724 104 210 1.0 4.0 0.00 0.00 0.00 36 1017.1
20260831183154 104 141 1.0 4.0 0.00 0.00 0.00 36 1017.3
20260831182651 103 217 1.0 4.0 0.00 0.00 0.00 35 1017.3
20260831182122 102 214 2.0 4.0 0.00 0.00 0.00 36 1017.4
20260831181618 102 146 2.0 7.0 0.00 0.00 0.00 37 1017.5
20260831181604 101 118 2.0 7.0 0.00 0.00 0.00 39 1017.5
20260831180549 101 139 2.0 7.0 0.00 0.00 0.00 39 1017.6
20260831180038 100 250 1.0 7.0 0.00 0.00 0.00 40 1017.7
20260831175536 100 125 1.0 4.0 0.00 0.00 0.00 41 1017.6
20260831175034 99 155 1.0 6.0 0.00 0.00 0.00 41 1017.7
20260831174506 99 198 3.0 6.0 0.00 0.00 0.00 40 1017.8
20260831173943 98 257 4.0 10.0 0.00 0.00 0.00 42 1017.9
20260831173426 99 278 2.0 10.0 0.00 0.00 0.00 41 1017.9
20260831172926 98 247 2.0 8.0 0.00 0.00 0.00 42 1017.9
20260831172423 98 207 3.0 7.0 0.00 0.00 0.00 43 1018.0
20260831171924 98 250 3.0 9.0 0.00 0.00 0.00 43 1018.1
20260831171419 99 233 2.0 7.0 0.00 0.00 0.00 42 1018.1
20260831170855 99 124 2.0 5.0 0.00 0.00 0.00 43 1018.2
20260831170327 98 188 2.0 8.0 0.00 0.00 0.00 44 1018.3
20260831165801 99 267 1.0 8.0 0.00 0.00 0.00 42 1018.3
20260831165236 98 153 1.0 4.0 0.00 0.00 0.00 44 1018.4
20260831164734 99 278 1.0 4.0 0.00 0.00 0.00 43 1018.6
20260831164702 99 125 1.0 4.0 0.00 0.00 0.00 43 1018.5
20260831164143 99 202 1.0 4.0 0.00 0.00 0.00 44 1018.4
20260831163641 99 172 2.0 8.0 0.00 0.00 0.00 45 1018.5
20260831162648 98 277 2.0 8.0 0.00 0.00 0.00 45 1018.5
20260831162148 98 259 2.0 6.0 0.00 0.00 0.00 44 1018.4
20260831162106 98 206 2.0 7.0 0.00 0.00 0.00 47 1018.4
20260831161052 99 261 2.0 7.0 0.00 0.00 0.00 45 1018.4
20260831160550 99 278 1.0 5.0 0.00 0.00 0.00 46 1018.4
20260831160022 98 214 1.0 3.0 0.00 0.00 0.00 47 1018.4
20260831155519 98 139 1.0 4.0 0.00 0.00 0.00 46 1018.4
20260831154955 98 143 1.0 4.0 0.00 0.00 0.00 47 1018.3
20260831154431 97 134 1.0 5.0 0.00 0.00 0.00 48 1018.3
20260831153902 97 137 1.0 3.0 0.00 0.00 0.00 48 1018.3
20260831153401 96 206 1.0 5.0 0.00 0.00 0.00 50 1018.3
20260831152857 96 141 1.0 4.0 0.00 0.00 0.00 49 1018.3
20260831152820 96 198 1.0 4.0 0.00 0.00 0.00 50 1018.4
20260831151828 95 222 1.0 6.0 0.00 0.00 0.00 51 1018.3
20260831151329 94 137 2.0 6.0 0.00 0.00 0.00 51 1018.4
20260831150806 94 209 2.0 6.0 0.00 0.00 0.00 52 1018.3
20260831150258 94 123 1.0 6.0 0.00 0.00 0.00 50 1018.3
20260831145757 94 187 1.0 2.0 0.00 0.00 0.00 52 1018.3
20260831145228 94 176 1.0 3.0 0.00 0.00 0.00 52 1018.2
20260831145148 93 176 1.0 3.0 0.00 0.00 0.00 53 1018.3
20260831144135 93 154 0.0 2.0 0.00 0.00 0.00 54 1018.3
20260831144057 91 200 1.0 5.0 0.00 0.00 0.00 56 1018.3
20260831143105 91 183 2.0 5.0 0.00 0.00 0.00 55 1018.3
20260831142600 91 199 1.0 5.0 0.00 0.00 0.00 56 1018.3
20260831142100 91 194 0.0 5.0 0.00 0.00 0.00 56 1018.3
20260831141530 90 181 0.0 2.0 0.00 0.00 0.00 57 1018.3
20260831141519 90 162 1.0 3.0 0.00 0.00 0.00 58 1018.4
20260831140526 89 162 0.0 3.0 0.00 0.00 0.00 58 1018.4
20260831140011 89 152 0.0 2.0 0.00 0.00 0.00 60 1018.4
20260831135442 88 138 0.0 2.0 0.00 0.00 0.00 59 1018.3
20260831134943 87 198 0.0 2.0 0.00 0.00 0.00 61 1018.3
20260831134421 87 182 0.0 2.0 0.00 0.00 0.00 62 1018.2
20260831133919 86 148 0.0 1.0 0.00 0.00 0.00 61 1018.1
20260831133416 86 141 0.0 0.0 0.00 0.00 0.00 62 1018.1
20260831132915 85 141 0.0 0.0 0.00 0.00 0.00 63 1018.0
20260831132417 85 141 0.0 0.0 0.00 0.00 0.00 65 1018.1
20260831131914 84 141 0.0 1.0 0.00 0.00 0.00 65 1018.0
20260831131900 83 141 0.0 1.0 0.00 0.00 0.00 66 1018.0
20260831130913 82 141 0.0 1.0 0.00 0.00 0.00 67 1017.9
20260831130415 82 142 0.0 1.0 0.00 0.00 0.00 68 1017.8
20260831125849 81 142 0.0 0.0 0.00 0.00 0.00 72 1017.7
20260831125326 79 142 0.0 0.0 0.00 0.00 0.00 72 1017.8
20260831124804 78 142 0.0 0.0 0.00 0.00 0.00 74 1017.7
20260831124302 77 141 0.0 0.0 0.00 0.00 0.00 76 1017.7
20260831123805 76 142 0.0 0.0 0.00 0.00 0.00 77 1017.6
20260831123243 74 141 0.0 0.0 0.00 0.00 0.00 79 1017.4
20260831122740 73 141 0.0 0.0 0.00 0.00 0.00 80 1017.4
20260831122239 72 141 0.0 0.0 0.00 0.00 0.00 81 1017.3
20260831121722 71 141 0.0 0.0 0.00 0.00 0.00 82 1017.1
20260831121206 70 141 0.0 0.0 0.00 0.00 0.00 82 1017.1
20260831120706 70 141 0.0 0.0 0.00 0.00 0.00 81 1017.3
20260831120203 70 141 0.0 0.0 0.00 0.00 0.00 80 1017.1
20260831115706 70 141 0.0 0.0 0.00 0.00 0.00 80 1017.0
20260831115145 70 141 0.0 0.0 0.00 0.00 0.00 80 1017.0
20260831114631 70 141 0.0 0.0 0.00 0.00 0.00 80 1016.9
20260831114133 71 141 0.0 0.0 0.00 0.00 0.00 80 1016.9
20260831113610 71 141 0.0 0.0 0.00 0.00 0.00 79 1016.8
20260831113112 71 141 0.0 0.0 0.00 0.00 0.00 78 1016.7
20260831112547 71 141 0.0 0.0 0.00 0.00 0.00 78 1016.6
20260831112039 71 141 0.0 0.0 0.00 0.00 0.00 78 1016.6
20260831111540 72 141 0.0 0.0 0.00 0.00 0.00 78 1016.6
20260831111017 72 141 0.0 0.0 0.00 0.00 0.00 78 1016.6